Terminal Aerodrome Forecast
Issued by NWS Jackson, MS

Home | Current Version | Previous Version | Text Only | Print | Product List | Glossary On
Versions: 1 2 3 4 5 6 7 8 9 10 11 12
000
FTUS44 KMEG 190520
TAFTUP
TAF
KTUP 190520Z 1906/2006 03004KT P6SM OVC030
      TEMPO 1908/1912 5SM BR
     FM191500 04003KT P6SM OVC050
     FM192100 04005KT P6SM VCSH OVC050
     FM192200 05005KT P6SM -RA OVC045=

USA.gov is the U.S. government's official web portal to all federal, state and local government web resources and services.